{"data":{"norad_id":55834,"epoch":"2026-09-20T01:17:50.773632Z","epoch_age_seconds":56603,"freshness":"FRESH","line1":"1 55834U 23029AQ  26263.05405988  .00000009  00000+0 -10514-4 0  9993","line2":"2 55834  87.9106 286.0740 0001665  96.3746 263.7577 13.19725785171439","mean_motion":13.19725785,"eccentricity":0.0001665,"inclination_deg":87.9106,"raan_deg":286.074,"arg_perigee_deg":96.3746,"mean_anomaly_deg":263.7577,"bstar":-1.0514e-5,"rev_number":17143,"period_min":109.11357619644,"perigee_km":1184.5081624444,"apogee_km":1187.0269426604,"semimajor_km":7563.9045525524,"source":"CELESTRAK","updated_at":"2026-09-20T09:00:44.785668Z"}}